Torna al catalogo

STARLINK-34593

AttivoComunicazioniVLEO
NORAD 64758·PAYLOAD·🇺🇸 United States

Lanciato Jul 8, 2025 da Cape Canaveral Space Force Station

Loading…

Prossimi Passaggi (prossime 24 ore)

TLE

AggiornatoSource: CelesTrak SupGP

Epoca: Sep 14, 2026, 22:38 UTC

1 64758C 25147D   26257.94354167  .00072631  00000+0  21436-2 0  2573
2 64758  53.1585  79.3889 0001408  86.3071  69.8366 15.34387416    12

Traccia STARLINK-34593 in tempo reale con AllMySat

Download on the App Store